Regional Weather Roundup
Issued by NWS

Home | Current Version | Previous Version | Text Only | Print | Product List | Glossary On
Versions: 1 2 3 4 5 6 7 8 9 10 11 12 13 14 15 16 17 18 19 20 21 22 23 24 25 26 27 28 29 30 31 32 33 34 35 36 37 38 39 40 41 42 43 44 45 46 47 48 49 50
000
ASUS43 KLMK 210210
RWRKY
KENTUCKY REGIONAL WEATHER ROUNDUP
NATIONAL WEATHER SERVICE LOUISVILLE KY
1000 PM EDT MON APR 20 2015

NOTE "FAIR" INDICATES FEW OR NO CLOUDS BELOW 12,000 FEET
WITH NO SIGNIFICANT WEATHER AND/OR OBSTRUCTIONS TO VISIBILITY.

KYZ001>023-026-027-061>063-070>075-210300-
WESTERN AND SOUTH CENTRAL KENTUCKY

CITY           SKY/WX    TMP DP  RH WIND       PRES   REMARKS
PADUCAH        MOCLDY    55  36  48 NW5       29.84R
HENDERSON      MOCLDY    54  36  50 NW10      29.83R
OWENSBORO      PTCLDY    53  40  61 NW7       29.84R
HOPKINSVILLE   MOCLDY    53  41  65 SW8       29.83R
BOWLING GREEN  MOCLDY    54  42  64 CALM      29.83R
GLASGOW        CLOUDY    51  46  83 CALM      29.83R
$$

KYZ024-025-028>034-038-045-046-053-210300-
NORTH CENTRAL KENTUCKY

CITY           SKY/WX    TMP DP  RH WIND       PRES   REMARKS
LOUISVILLE/SDF MOCLDY    54  35  48 W14       29.80R
LOUISVILLE/LOU CLOUDY    54  34  46 W14G22    29.80R
FORT KNOX      MOCLDY    51  38  60 W8        29.79R
$$

KYZ035>037-039>044-047>052-055>060-089>105-210300-
NORTHEAST KENTUCKY

CITY           SKY/WX    TMP DP  RH WIND       PRES   REMARKS
LEXINGTON      PTCLDY    51  37  58 W12       29.78R
COVINGTON      MOCLDY    51  37  58 W16       29.75R
FRANKFORT      MOCLDY    53  36  52 W8        29.77R
$$

KYZ054-064>069-076>088-106>120-210300-
SOUTHEAST KENTUCKY

CITY           SKY/WX    TMP DP  RH WIND       PRES   REMARKS
JACKSON        CLOUDY    51  45  79 VRB3      29.77R
LONDON         CLOUDY    53  46  77 SW6       29.81R
SOMERSET       CLOUDY    52  46  82 SW5       29.83R
MIDDLESBORO    CLOUDY    53  48  81 NW8       29.82R
MONTICELLO     PTCLDY    53  51  93 SW7       29.85R
$$



USA.gov is the U.S. government's official web portal to all federal, state and local government web resources and services.